Location: Newark
(20.0000°S, 47.0000°E)
Time: 13:11:28
(UTC+00:00)

Envisat - Pass Details

Date: 27 June 2019
Orbit: 764 x 766 km, 98.1° (Epoch: 23 July)

Event Time Altitude Azimuth Distance (km) Brightness Sun altitude
Rises 02:40:01 0° 40° (NE) 3,212 7.4 -11.1°
Reaches altitude 10° 02:42:41 10° 54° (NE) 2,294 6.9 -10.5°
Maximum altitude 02:46:43 25° 107° (ESE) 1,530 5.2 -9.6°
Drops below altitude 10° 02:50:47 10° 160° (SSE) 2,313 5.5 -8.7°
Sets 02:53:28 0° 173° (S) 3,246 6.1 -8.1°
